Terminal Aerodrome Forecast
Issued by NWS Boise, ID

Home | Current Version | Previous Version | Text Only | Print | Product List | Glossary On
Versions: 1 2 3 4 5 6 7 8 9 10 11 12 13 14 15 16 17 18 19 20 21 22 23 24 25 26 27
000
FTUS45 KBOI 022337
TAFBNO
TAF
KBNO 022337Z 0300/0324 28010KT P6SM BKN200
      TEMPO 0300/0302 28012G19KT
     FM030700 28011KT P6SM VCSH BKN070
     FM031100 26008KT P6SM BKN120=

USA.gov is the U.S. government's official web portal to all federal, state and local government web resources and services.